Volver al catálogo

FENGYUN 1C DEB

ActivoPO
NORAD 31178·DEBRIS·🇨🇳 China

Lanzado May 10, 1999 desde Taiyuan Satellite Launch Center

Loading…

Próximos Pases (próximas 24 horas)

TLE

ActualizadoSource: Space-Track

Época: Sep 13, 2026, 07:43 UTC

1 31178U 99025BJG 26256.32185833  .00002042  00000-0  84258-3 0  9997
2 31178  99.5073 285.5897 0121722 258.7780  99.9694 14.24115196997219

Sigue FENGYUN 1C DEB en tiempo real con AllMySat

Download on the App Store